Weather History for KGCC - October, 2012

Change the Weather History Date:

Sunday, October 21, 2012

  Actual Average Record
Temperature  
Mean Temperature 43 °F 44 °F  
Max Temperature 46 °F 57 °F 81 °F (1992)
Min Temperature 40 °F 30 °F 7 °F (1949)
Degree Days  
Heating Degree Days 22 22  
Month to date heating degree days 387 380  
Since 1 July heating degree days 545 675  
Cooling Degree Days 0 0  
Month to date cooling degree days 0 0  
Year to date cooling degree days 795 500  
Moisture  
Dew Point 36 °F    
Average Humidity 85    
Maximum Humidity 100    
Minimum Humidity 70    
Precipitation  
Precipitation 0.00 in 0.03 in 0.24 in (1931)
Month to date precipitation 0.51 0.99  
Year to date precipitation 8.09 12.66  
Sea Level Pressure  
Sea Level Pressure 29.87 in    
Wind  
Wind Speed 8 mph (NE)    
Max Wind Speed 23 mph    
Max Gust Speed 30 mph    
Visibility 10 miles    
Events      
T = Trace of Precipitation, MM = Missing Value Source: NWS Daily Summary

Daily Weather History Graph

Daily Weather History Graph

Search for Another Location

Airport or City:

Trip Planner

Search our weather history database for the weather conditions in past years. The results will help you decide how hot, cold, wet, or windy it might be!

Date:

Astronomy

Oct. 21, 2012 Rise Set
Actual Time 7:25 AM MDT 6:07 PM MDT
Civil Twilight 6:55 AM MDT 6:36 PM MDT
Nautical Twilight 6:22 AM MDT 7:10 PM MDT
Astronomical Twilight 5:48 AM MDT 7:44 PM MDT
Moon 1:52 PM MDT (10/21) No Moon Set
Length of Visible Light 11h 40m
Length of Day
10h 41m
Waxing Crescent, 46% of the Moon is Illuminated
Oct 21
Waxing Crescent
Oct 21
First Quarter
Oct 29
Full
Nov 6
Last Quarter
Nov 13
New

Hourly Weather History & Observations

Time (MDT) Temp. Windchill Dew Point Humidity Pressure Visibility Wind Dir Wind Speed Gust Speed Precip Events Conditions
12:53 AM 42.1 °F 37.1 °F 37.9 °F 85% 29.70 in 10.0 mi North 8.1 mph - N/A   Scattered Clouds
1:46 AM 42.8 °F 35.4 °F 37.4 °F 81% 29.80 in 10.0 mi NNE 15.0 mph - N/A   Mostly Cloudy
1:53 AM 43.0 °F 36.0 °F 37.0 °F 80% 29.72 in 10.0 mi NNE 13.8 mph 21.9 mph N/A   Mostly Cloudy
2:53 AM 42.1 °F 34.2 °F 37.0 °F 82% 29.77 in 10.0 mi North 16.1 mph - N/A   Overcast
3:53 AM 42.1 °F 36.6 °F 37.0 °F 82% 29.79 in 10.0 mi NNE 9.2 mph - N/A   Overcast
4:53 AM 42.1 °F 35.7 °F 37.9 °F 85% 29.81 in 10.0 mi NNE 11.5 mph - N/A   Overcast
5:05 AM 42.8 °F 36.6 °F 37.4 °F 81% 29.86 in 10.0 mi NNE 11.5 mph - N/A   Overcast
5:53 AM 41.0 °F 33.9 °F 37.0 °F 86% 29.85 in 10.0 mi NNE 12.7 mph - N/A   Overcast
6:26 AM 41.0 °F 35.8 °F 37.4 °F 87% 29.88 in 10.0 mi NE 8.1 mph - N/A   Overcast
6:53 AM 39.9 °F 34.5 °F 39.0 °F 97% 29.88 in 9.0 mi ENE 8.1 mph - N/A   Overcast
7:17 AM 41.0 °F 35.8 °F 37.4 °F 87% 29.89 in 10.0 mi NNE 8.1 mph - N/A   Overcast
7:25 AM 41.0 °F 36.4 °F 37.4 °F 87% 29.88 in 10.0 mi ENE 6.9 mph - N/A   Overcast
7:39 AM 39.2 °F 35.9 °F 37.4 °F 93% 29.88 in 10.0 mi ENE 4.6 mph - N/A   Overcast
7:49 AM 41.0 °F 37.1 °F 35.6 °F 81% 29.88 in 10.0 mi NE 5.8 mph - N/A   Overcast
7:53 AM 41.0 °F 36.4 °F 36.0 °F 82% 29.87 in 10.0 mi NE 6.9 mph - N/A   Overcast
8:00 AM 39.2 °F 33.6 °F 35.6 °F 87% 29.89 in 10.0 mi NE 8.1 mph - N/A   Overcast
8:53 AM 41.0 °F 38.0 °F 37.0 °F 86% 29.91 in 10.0 mi NE 4.6 mph - N/A   Scattered Clouds
9:53 AM 41.0 °F 36.4 °F 34.0 °F 76% 29.91 in 10.0 mi ENE 6.9 mph - N/A   Mostly Cloudy
10:53 AM 41.0 °F 38.0 °F 34.0 °F 76% 29.92 in 10.0 mi ENE 4.6 mph - N/A   Overcast
11:01 AM 42.8 °F 40.1 °F 33.8 °F 70% 29.91 in 10.0 mi NNE 4.6 mph - N/A   Overcast
11:08 AM 42.8 °F 40.1 °F 33.8 °F 70% 29.91 in 10.0 mi NE 4.6 mph - N/A   Overcast
11:53 AM 42.1 °F 39.2 °F 34.0 °F 73% 29.91 in 10.0 mi NNE 4.6 mph - N/A   Overcast
12:18 PM 42.8 °F 41.1 °F 33.8 °F 70% 29.91 in 10.0 mi NNE 3.5 mph - N/A   Overcast
12:53 PM 42.1 °F 39.2 °F 34.0 °F 73% 29.91 in 10.0 mi NE 4.6 mph - N/A   Overcast
1:53 PM 43.0 °F 40.3 °F 34.0 °F 71% 29.90 in 10.0 mi NNE 4.6 mph - N/A   Overcast
2:53 PM 42.1 °F 37.7 °F 34.0 °F 73% 29.91 in 10.0 mi NE 6.9 mph - N/A   Overcast
3:53 PM 43.0 °F 39.5 °F 35.1 °F 74% 29.90 in 10.0 mi East 5.8 mph - N/A   Overcast
4:53 PM 43.0 °F 39.5 °F 36.0 °F 76% 29.89 in 10.0 mi East 5.8 mph - N/A   Mostly Cloudy
5:53 PM 42.1 °F 38.4 °F 37.0 °F 82% 29.89 in 10.0 mi ENE 5.8 mph - N/A   Mostly Cloudy
6:53 PM 41.0 °F - 37.0 °F 86% 29.90 in 10.0 mi Calm Calm - N/A   Mostly Cloudy
7:53 PM 42.1 °F - 37.0 °F 82% 29.91 in 10.0 mi Calm Calm - N/A   Partly Cloudy
8:53 PM 43.0 °F 41.3 °F 37.9 °F 82% 29.90 in 10.0 mi ESE 3.5 mph - N/A   Mostly Cloudy
9:53 PM 45.0 °F 40.6 °F 39.9 °F 82% 29.89 in 10.0 mi South 8.1 mph - N/A   Overcast
10:53 PM 46.0 °F 38.8 °F 37.0 °F 71% 29.88 in 10.0 mi South 18.4 mph 25.3 mph N/A   Mostly Cloudy
11:53 PM 46.0 °F 38.8 °F 37.0 °F 71% 29.86 in 10.0 mi SSE 18.4 mph 29.9 mph N/A   Clear